Weather History for Crystal River, FL

Change the Weather History Date:

Thursday, February 6, 2014

  Actual Average (KBKV) Record (KBKV)
Temperature  
Mean Temperature 54 °F -  
Max Temperature 60 °F 68 °F 82 °F (2004)
Min Temperature 48 °F 44 °F 19 °F (2009)
Degree Days  
Heating Degree Days 11    
Growing Degree Days 4 (Base 50)    
Moisture  
Dew Point 48 °F    
Average Humidity 79    
Maximum Humidity 94    
Minimum Humidity 55    
Precipitation  
Precipitation 0.56 in - - ()
Sea Level Pressure  
Sea Level Pressure 30.15 in    
Wind  
Wind Speed 5 mph (NE)    
Max Wind Speed 12 mph    
Max Gust Speed 17 mph    
Visibility 9 miles    
Events Rain , Thunderstorm    
Averages and records for this station are not official NWS values.
T = Trace of Precipitation, MM = Missing Value Source: NWS Daily Summary

Daily Weather History Graph

Daily Weather History Graph

Search for Another Location

Airport:

Trip Planner

Search our weather history database for the weather conditions in past years. The results will help you decide how hot, cold, wet, or windy it might be!

Date:

Astronomy

Feb. 06, 2014 Rise Set
Actual Time 7:15 AM EST 6:13 PM EST
Civil Twilight 6:51 AM EST 6:37 PM EST
Nautical Twilight 6:23 AM EST 7:06 PM EST
Astronomical Twilight 5:55 AM EST 7:33 PM EST
Moon 11:46 AM EST (2/6) 12:30 AM EST (2/6)
Length of Visible Light 11h 46m
Length of Day
10h 57m
Waxing Crescent, 49% of the Moon is Illuminated
Feb 6
Waxing Crescent
Feb 6
First Quarter
Feb 14
Full
Feb 22
Last Quarter
Mar 1
New

Hourly Weather History & Observations

Time (EST) Temp. Dew Point Humidity Pressure Visibility Wind Dir Wind Speed Gust Speed Precip Events Conditions
12:15 AM 60.8 °F 59.0 °F 94% 30.07 in 10.0 mi Calm Calm - N/A   Clear
12:35 AM 60.8 °F 59.0 °F 94% 30.06 in 10.0 mi Calm Calm - N/A   Clear
12:55 AM 60.8 °F 59.0 °F 94% 30.07 in 10.0 mi Calm Calm - N/A   Scattered Clouds
1:15 AM 60.8 °F 59.0 °F 94% 30.08 in 10.0 mi Calm Calm - N/A   Scattered Clouds
1:35 AM 60.8 °F 59.0 °F 94% 30.08 in 10.0 mi Calm Calm - N/A   Mostly Cloudy
1:55 AM 60.8 °F 59.0 °F 94% 30.08 in 10.0 mi Calm Calm - N/A   Overcast
2:15 AM 60.8 °F 59.0 °F 94% 30.08 in 10.0 mi Calm Calm - N/A   Overcast
2:35 AM 60.8 °F 55.4 °F 82% 30.07 in 10.0 mi Calm Calm - N/A   Overcast
2:55 AM 60.8 °F 51.8 °F 72% 30.08 in 10.0 mi NNE 5.8 mph - N/A   Overcast
3:15 AM 60.8 °F 51.8 °F 72% 30.09 in 10.0 mi NNW 3.5 mph - N/A   Overcast
3:35 AM 59.0 °F 50.0 °F 72% 30.09 in 10.0 mi North 4.6 mph - N/A   Overcast
3:55 AM 59.0 °F 48.2 °F 67% 30.09 in 10.0 mi North 5.8 mph - N/A   Mostly Cloudy
4:15 AM 59.0 °F 48.2 °F 67% 30.09 in 10.0 mi North 5.8 mph - N/A   Mostly Cloudy
4:35 AM 59.0 °F 46.4 °F 63% 30.10 in 10.0 mi North 6.9 mph - N/A   Overcast
4:55 AM 59.0 °F 46.4 °F 63% 30.09 in 10.0 mi NNE 8.1 mph - N/A   Overcast
5:15 AM 57.2 °F 46.4 °F 67% 30.11 in 10.0 mi NNW 5.8 mph - N/A   Overcast
5:35 AM 55.4 °F 46.4 °F 72% 30.11 in 10.0 mi NNE 5.8 mph - N/A Rain Light Rain
5:55 AM 55.4 °F 46.4 °F 72% 30.12 in 10.0 mi NNE 4.6 mph - N/A   Mostly Cloudy
6:15 AM 55.4 °F 46.4 °F 72% 30.12 in 10.0 mi NNE 5.8 mph - N/A   Scattered Clouds
6:35 AM 55.4 °F 44.6 °F 67% 30.12 in 10.0 mi NNE 6.9 mph - N/A   Clear
6:55 AM 55.4 °F 44.6 °F 67% 30.14 in 10.0 mi NNE 3.5 mph - N/A   Scattered Clouds
7:15 AM 55.4 °F 44.6 °F 67% 30.14 in 10.0 mi NNE 6.9 mph - N/A   Mostly Cloudy
7:35 AM 53.6 °F 44.6 °F 72% 30.15 in 10.0 mi NNE 6.9 mph - N/A   Overcast
7:55 AM 53.6 °F 44.6 °F 72% 30.15 in 10.0 mi NE 5.8 mph - N/A   Overcast
8:15 AM 53.6 °F 44.6 °F 72% 30.17 in 10.0 mi NE 9.2 mph 16.1 mph N/A Rain Rain
8:35 AM 53.6 °F 46.4 °F 77% 30.17 in 10.0 mi NE 8.1 mph - N/A Rain Light Rain
8:55 AM 53.6 °F 46.4 °F 77% 30.17 in 10.0 mi ENE 5.8 mph - N/A   Mostly Cloudy
9:15 AM 53.6 °F 44.6 °F 72% 30.17 in 10.0 mi NE 9.2 mph 16.1 mph N/A   Scattered Clouds
9:35 AM 55.4 °F 44.6 °F 67% 30.18 in 10.0 mi NE 10.4 mph - N/A   Mostly Cloudy
9:55 AM 55.4 °F 44.6 °F 67% 30.19 in 10.0 mi NE 9.2 mph - N/A   Overcast
10:15 AM 57.2 °F 42.8 °F 59% 30.20 in 10.0 mi North 9.2 mph - N/A   Mostly Cloudy
10:35 AM 55.4 °F 42.8 °F 63% 30.19 in 10.0 mi NE 9.2 mph - N/A   Mostly Cloudy
10:55 AM 57.2 °F 42.8 °F 59% 30.19 in 10.0 mi ENE 9.2 mph - N/A   Scattered Clouds
11:15 AM 57.2 °F 42.8 °F 59% 30.19 in 10.0 mi ENE 8.1 mph - N/A   Mostly Cloudy
11:35 AM 59.0 °F 44.6 °F 59% 30.17 in 10.0 mi East 10.4 mph - N/A   Overcast
11:55 AM 60.8 °F 44.6 °F 55% 30.17 in 10.0 mi East 10.4 mph 16.1 mph N/A   Mostly Cloudy
12:15 PM 59.0 °F 44.6 °F 59% 30.17 in 10.0 mi ENE 8.1 mph - N/A   Overcast
12:35 PM 60.8 °F 46.4 °F 59% 30.15 in 10.0 mi East 6.9 mph - N/A   Overcast
12:55 PM 59.0 °F 46.4 °F 63% 30.15 in 10.0 mi ENE 9.2 mph - N/A Rain Light Rain
1:15 PM 60.8 °F 46.4 °F 59% 30.13 in 10.0 mi ENE 8.1 mph - N/A   Overcast
1:35 PM 60.8 °F 46.4 °F 59% 30.11 in 10.0 mi East 9.2 mph - N/A   Overcast
1:55 PM 60.8 °F 46.4 °F 59% 30.11 in 10.0 mi East 8.1 mph - N/A   Overcast
2:15 PM 60.8 °F 46.4 °F 59% 30.10 in 10.0 mi East 8.1 mph - N/A   Overcast
2:35 PM 57.2 °F 50.0 °F 77% 30.10 in 5.0 mi ENE 6.9 mph - 0.03 in Rain Heavy Rain
2:55 PM 55.4 °F 51.8 °F 88% 30.10 in 3.0 mi ENE 4.6 mph - 0.11 in Rain Heavy Rain
3:15 PM 55.4 °F 51.8 °F 88% 30.09 in 4.0 mi East 5.8 mph - N/A   Light Drizzle
3:35 PM 55.4 °F 51.8 °F 88% 30.09 in 10.0 mi ENE 4.6 mph - N/A   Overcast
3:55 PM 55.4 °F 51.8 °F 88% 30.10 in 10.0 mi North 4.6 mph - N/A   Overcast
4:15 PM 55.4 °F 51.8 °F 88% 30.10 in 10.0 mi NE 5.8 mph - N/A   Overcast
4:35 PM 55.4 °F 53.6 °F 94% 30.10 in 7.0 mi ENE 5.8 mph - N/A   Overcast
4:55 PM 53.6 °F 51.8 °F 94% 30.14 in 7.0 mi North 5.8 mph - 0.01 in Rain Rain
5:15 PM 51.8 °F 50.0 °F 94% 30.16 in 7.0 mi North 9.2 mph - N/A Rain , Thunderstorm Light Thunderstorms and Rain
5:35 PM 51.8 °F 50.0 °F 94% 30.18 in 5.0 mi North 8.1 mph 17.3 mph 0.03 in Rain , Thunderstorm Heavy Thunderstorms and Rain
5:55 PM 50.0 °F 48.2 °F 94% 30.17 in 7.0 mi NNE 8.1 mph - 0.04 in Rain Light Rain
6:15 PM 50.0 °F 48.2 °F 94% 30.16 in 4.0 mi NE 11.5 mph - 0.13 in Rain Heavy Rain
6:35 PM 50.0 °F 46.4 °F 87% 30.16 in 5.0 mi NE 6.9 mph - 0.19 in Rain Rain
6:55 PM 50.0 °F 46.4 °F 87% 30.15 in 5.0 mi NE 8.1 mph - 0.25 in Rain Rain
7:15 PM 50.0 °F 46.4 °F 87% 30.16 in 7.0 mi NNE 5.8 mph - 0.02 in Rain Light Rain
7:35 PM 50.0 °F 46.4 °F 87% 30.17 in 10.0 mi North 5.8 mph - 0.03 in Rain Rain
7:55 PM 48.2 °F 46.4 °F 93% 30.18 in 10.0 mi NNE 4.6 mph - 0.04 in Rain Light Rain
8:15 PM 48.2 °F 46.4 °F 93% 30.21 in 5.0 mi North 8.1 mph - 0.07 in Rain Heavy Rain
8:35 PM 48.2 °F 46.4 °F 93% 30.22 in 7.0 mi North 5.8 mph - 0.08 in Rain Rain
8:55 PM 48.2 °F 46.4 °F 93% 30.24 in 7.0 mi North 6.9 mph - 0.09 in   Drizzle
9:15 PM 48.2 °F 46.4 °F 93% 30.24 in 7.0 mi NNE 6.9 mph - 0.02 in Rain Rain
9:35 PM 48.2 °F 46.4 °F 93% 30.23 in 7.0 mi NE 4.6 mph - 0.02 in   Light Drizzle
9:55 PM 48.2 °F 46.4 °F 93% 30.24 in 10.0 mi NE 6.9 mph - 0.02 in Rain Light Rain
10:15 PM 48.2 °F 46.4 °F 93% 30.24 in 10.0 mi NE 6.9 mph - N/A   Light Drizzle
10:35 PM 48.2 °F 46.4 °F 93% 30.23 in 10.0 mi NE 6.9 mph - N/A   Overcast
10:55 PM 48.2 °F 46.4 °F 93% 30.24 in 10.0 mi NNE 5.8 mph - N/A   Light Drizzle
11:15 PM 48.2 °F 46.4 °F 93% 30.24 in 10.0 mi NE 8.1 mph - N/A   Overcast
11:35 PM 48.2 °F 44.6 °F 87% 30.22 in 10.0 mi NE 9.2 mph - N/A   Light Drizzle
11:55 PM 48.2 °F 44.6 °F 87% 30.22 in 10.0 mi NE 6.9 mph - N/A   Overcast